Location: B?dimalle
(17.1788°N, 80.5377°E)
Time: 10:35:46
(UTC+00:00)

Tiros 1 despin weight - Pass Details

Date: 22 February 2026
Orbit: 556 x 593 km, 48.2° (Epoch: 10 March)

Event Time Altitude Azimuth Distance (km) Brightness Sun altitude
Rises 05:41:41 0° 217° (SW) 2,777 ? 57.7°
Reaches altitude 10° 05:43:58 10° 215° (SW) 1,873 ? 58.0°
Maximum altitude 05:48:14 71° 131° (SE) 601 ? 58.5°
Drops below altitude 10° 05:52:27 10° 47° (NE) 1,852 ? 59.0°
Sets 05:54:42 0° 45° (NE) 2,743 ? 59.3°
